ANGELS

Last updated on Thu Apr 24 2025 00:02:36 GMT+0000 (Coordinated Universal Time)

1 44876U 19092D 25113.11272103 .00035219 00000+0 83515-3 0 9993 2 44876 97.4607 310.4147 0005951 297.1030 62.9609 15.41637281296823
UTC large
Height (km)
Speed (km/s)
/
Latitude / Longitude
Inclination (degrees)
Orbital Period (minutes)
Azimuth
Elevation
Range (km)
Doppler Factor

Next 0 passes for location: London (51.5072 / 0.1276)

Sorry there are no passes over London.